Volver al catálogo

THORAD AGENA D DEB

ActivoLEO
NORAD 4736·DEBRIS·🇺🇸 United States

Lanzado Apr 8, 1970 desde Vandenberg Space Force Base

Loading…

Próximos Pases (próximas 24 horas)

TLE

ActualizadoSource: Space-Track

Época: Sep 14, 2026, 01:39 UTC

1 04736U 70025CK  26257.06896857  .00000637  00000-0  42987-3 0  9994
2 04736 100.0585 290.4144 0083018 335.7568  23.9699 14.03218718859096

Sigue THORAD AGENA D DEB en tiempo real con AllMySat

Download on the App Store